Вернуться в каталог

STARLINK-36937

АктивенСвязьSSO
NORAD 68113·PAYLOAD·🇺🇸 United States

Запущен Mar 8, 2026 с Vandenberg Space Force Base

Loading…

Ближайшие Пролёты (ближайшие 24 часа)

TLE

СвежийSource: CelesTrak SupGP

Эпоха: Sep 14, 2026, 21:11 UTC

1 68113C 26044N   26257.88312500 -.00000360  00000+0 -11166-4 0  2570
2 68113  97.2848 216.9184 0001837  85.9563  42.2230 15.33440453    11

Отслеживайте STARLINK-36937 в реальном времени с AllMySat

Download on the App Store